Simultaneous Nadir Overpasses (SNOs) Predictions

Prediction of SNOs between AQUA and NPP Satellite Orbit:

Table of predicted SNOs for the next 14.0 days since TLE Epoch: 7/14/2017
Index Date (AQUA) Time (AQUA) Lat,Lon (AQUA) SZA (AQUA ) Date (NPP) Time (NPP) Lat,Lon (NPP) SZA (NPP ) Distance(km) Time Diff (sec)
1 07/16/2017 21:48:59 74.22, 87.09 78.82 07/16/2017 21:48:02 74.21, 87.02 78.89 2.52 57
2 07/16/2017 22:37:57 -75.75,-101.28 102.92 07/16/2017 22:38:16 -75.75,-101.27 102.94 0.18 19
3 07/19/2017 14:05:14 74.91,-155.33 78.51 07/19/2017 14:04:42 74.91,-155.33 78.54 0.06 32
4 07/19/2017 14:54:23 -75.87, 14.98 102.60 07/19/2017 14:55:08 -75.86, 14.89 102.61 2.77 45
5 07/22/2017 06:21:39 75.09, -39.00 78.83 07/22/2017 06:21:33 75.08, -39.09 78.86 2.69 6
6 07/22/2017 07:10:40 -76.43, 132.62 102.74 07/22/2017 07:11:50 -76.43, 132.64 102.81 0.75 70
7 07/24/2017 21:48:57 -74.30, -92.72 99.75 07/24/2017 21:47:59 -74.30, -92.75 99.69 1.03 58
8 07/24/2017 22:37:53 75.75, 78.74 78.61 07/24/2017 22:38:12 75.75, 78.77 78.58 0.98 19
9 07/27/2017 14:05:19 -74.62, 23.92 99.53 07/27/2017 14:04:47 -74.61, 23.84 99.47 2.80 32




NCC Satellite Simultaneous Nadir Overpasses (SNOs) Prediction Service
